SHIJIAN-23 (SJ-23)

Last updated on Sat Jun 21 2025 00:02:47 GMT+0000 (Coordinated Universal Time)

1 55131U 23002A 25171.76572317 -.00000282 00000+0 00000+0 0 9997 2 55131 2.7868 82.9800 0001561 112.2267 92.5562 1.00080860 9066
UTC large
Height (km)
Speed (km/s)
/
Latitude / Longitude
Inclination (degrees)
Orbital Period (minutes)
Azimuth
Elevation
Range (km)
Doppler Factor

Next 0 passes for location: London (51.5072 / 0.1276)

Sorry there are no passes over London.